Greenville Downtown, SC

4:43 AM EDT on July 28, 2017 (GMT -0400)
Greenville Downtown

Weather History for KGMU - March, 2012

Change the Weather History Date:

Wednesday, March 14, 2012

  Actual Average Record
Temperature  
Mean Temperature 68 °F -  
Max Temperature 82 °F 59 °F 82 °F (2012)
Min Temperature 55 °F 41 °F 30 °F (1993)
Cooling Degree Days 4    
Growing Degree Days 18 (Base 50)    
Moisture  
Dew Point 53 °F    
Average Humidity 69    
Maximum Humidity 100    
Minimum Humidity 23    
Precipitation  
Precipitation 0.01 in - - ()
Sea Level Pressure  
Sea Level Pressure 30.21 in    
Wind  
Wind Speed 3 mph (WSW)    
Max Wind Speed 10 mph    
Max Gust Speed -    
Visibility 6 miles    
Events Fog    
Averages and records for this station are not official NWS values.
T = Trace of Precipitation, MM = Missing Value Source: NWS Daily Summary

Daily Weather History Graph

Daily Weather History Graph

Search for Another Location

Airport or City:

Trip Planner

Search our weather history database for the weather conditions in past years. The results will help you decide how hot, cold, wet, or windy it might be!

Date:

Astronomy

Mar. 14, 2012 Rise Set
Actual Time 7:40 AM EDT 7:36 PM EDT
Civil Twilight 7:15 AM EDT 8:01 PM EDT
Nautical Twilight 6:46 AM EDT 8:31 PM EDT
Astronomical Twilight 6:16 AM EDT 9:00 PM EDT
Moon 1:54 AM EDT (3/14) 12:06 PM EDT (3/14)
Length of Visible Light 12h 46m
Length of Day
11h 55m
Waning Gibbous, 54% of the Moon is Illuminated
Mar 14
Waning Gibbous
Mar 14
Last Quarter
Mar 22
New
Mar 30
First Quarter
Apr 6
Full

Hourly Weather History & Observations

Time (EDT) Temp. Dew Point Humidity Pressure Visibility Wind Dir Wind Speed Gust Speed Precip Events Conditions
12:36 AM 62.6 °F 60.8 °F 94% 30.22 in 10.0 mi WSW 4.6 mph - N/A   Scattered Clouds
12:53 AM 62.1 °F 60.1 °F 93% 30.20 in 10.0 mi West 4.6 mph - N/A   Clear
1:53 AM 61.0 °F 60.1 °F 97% 30.19 in 7.0 mi Calm Calm - N/A   Clear
2:24 AM 60.8 °F 59.0 °F 94% 30.21 in 2.5 mi Calm Calm - N/A   Partly Cloudy
2:33 AM 60.8 °F 59.0 °F 94% 30.21 in 3.0 mi Calm Calm - N/A   Mostly Cloudy
2:43 AM 60.8 °F 59.0 °F 94% 30.21 in 2.0 mi Calm Calm - N/A   Mostly Cloudy
2:53 AM 60.1 °F 59.0 °F 96% 30.19 in 1.5 mi West 3.5 mph - N/A   Overcast
3:01 AM 60.8 °F 59.0 °F 94% 30.21 in 0.5 mi SW 5.8 mph - N/A Fog Fog
3:10 AM 60.8 °F 59.0 °F 94% 30.20 in 0.2 mi WSW 5.8 mph - N/A Fog Fog
3:53 AM 60.1 °F 59.0 °F 96% 30.18 in 0.2 mi SW 3.5 mph - N/A Fog Fog
4:53 AM 59.0 °F 59.0 °F 100% 30.17 in 0.2 mi West 4.6 mph - N/A Fog Fog
5:53 AM 57.9 °F 57.0 °F 97% 30.18 in 0.2 mi West 3.5 mph - N/A Fog Fog
6:53 AM 57.0 °F 55.9 °F 96% 30.19 in 0.2 mi WNW 3.5 mph - N/A Fog Fog
7:53 AM 55.0 °F 54.0 °F 96% 30.22 in 0.2 mi Calm Calm - 0.01 in Fog Fog
8:40 AM 55.4 °F 55.4 °F 100% 30.24 in 1.0 mi Calm Calm - N/A   Mist
8:43 AM 55.4 °F 55.4 °F 100% 30.24 in 3.0 mi Calm Calm - N/A   Mostly Cloudy
8:53 AM 55.9 °F 55.9 °F 100% 30.24 in 6.0 mi Calm Calm - N/A   Scattered Clouds
9:53 AM 63.0 °F 57.0 °F 81% 30.25 in 10.0 mi Calm Calm - N/A   Clear
10:53 AM 73.0 °F 55.9 °F 55% 30.26 in 10.0 mi Calm Calm - N/A   Clear
11:53 AM 75.9 °F 50.0 °F 40% 30.25 in 10.0 mi Variable 3.5 mph - N/A   Clear
12:53 PM 80.1 °F 48.0 °F 32% 30.25 in 10.0 mi Calm Calm - N/A   Partly Cloudy
1:53 PM 80.1 °F 46.0 °F 30% 30.23 in 10.0 mi South 5.8 mph - N/A   Partly Cloudy
2:53 PM 82.0 °F 42.1 °F 24% 30.20 in 10.0 mi Variable 5.8 mph - N/A   Partly Cloudy
3:53 PM 81.0 °F 43.0 °F 26% 30.18 in 10.0 mi WNW 4.6 mph - N/A   Partly Cloudy
4:53 PM 82.0 °F 42.1 °F 24% 30.17 in 10.0 mi SW 8.1 mph - N/A   Partly Cloudy
5:53 PM 81.0 °F 39.9 °F 23% 30.16 in 10.0 mi Variable 3.5 mph - N/A   Clear
6:53 PM 79.0 °F 43.0 °F 28% 30.16 in 10.0 mi South 10.4 mph - N/A   Clear
7:53 PM 75.9 °F 44.1 °F 32% 30.18 in 10.0 mi South 3.5 mph - N/A   Clear
8:53 PM 73.9 °F 45.0 °F 35% 30.19 in 10.0 mi SW 3.5 mph - N/A   Clear
9:53 PM 71.1 °F 46.0 °F 41% 30.22 in 10.0 mi Calm Calm - N/A   Clear
10:53 PM 68.0 °F 48.0 °F 49% 30.22 in 10.0 mi Calm Calm - N/A   Clear
11:53 PM 66.9 °F 48.0 °F 51% 30.23 in 10.0 mi Calm Calm - N/A   Clear